Regional Weather Roundup
Issued by NWS Newport/Morehead, NC

Current Version | Previous Version | Graphics & Text | Print | Product List | Glossary Off
Versions: 1 2 3 4 5 6 7 8 9 10 11 12 13 14 15 16 17 18 19 20 21 22 23 24 25 26 27 28 29 30 31 32 33 34 35 36 37 38 39 40 41 42 43 44 45 46 47 48 49 50

000
ASUS42 KMHX 262225
RWRMHX
WEATHER ROUNDUP FOR EASTERN NORTH CAROLINA
NATIONAL WEATHER SERVICE NEWPORT/MOREHEAD CITY NC
600 PM EDT SAT MAY 26 2018

NOTE: "FAIR" INDICATES FEW OR NO CLOUDS BELOW 12,000 FEET
WITH NO SIGNIFICANT WEATHER AND/OR OBSTRUCTIONS TO VISIBILITY

NCZ015>017-031-032-045>047-102-103-262300-
NORTH COAST

CITY           SKY/WX    TMP DP  RH WIND       PRES   REMARKS
EDENTON        PTSUNNY   86  74  66 SW10      29.90S
ELIZABETH CITY FAIR      85  74  69 S10       29.89S
KITTY HAWK     FAIR      82  70  66 S6        29.90S
MANTEO         FAIR      82  72  72 SW20      29.92R

$$

NCZ045>047-081-094-103-104-262300-
CENTRAL COAST

CITY           SKY/WX    TMP DP  RH WIND       PRES   REMARKS
FRISCO         FAIR      80  73  79 SW13      29.95S

$$

NCZ095-097-098-100-101-262300-
SOUTHERN COAST

CITY           SKY/WX    TMP DP  RH WIND       PRES   REMARKS
BEAUFORT       FAIR      78  73  84 SW15      29.95S
CEDAR ISLAND   NOT AVBL
JACKSONVILLE   FAIR      81  72  74 S15       29.92S
PINEY ISLAND   NOT AVBL
WILMINGTON     FAIR      82  68  62 S15       29.94R


$$

NCZ011>013-027>030-043-044-078>080-089-090>093-098-262300-
COASTAL PLAIN

CITY           SKY/WX    TMP DP  RH WIND       PRES   REMARKS
AHOSKIE        FAIR      84  69  61 S5        29.89S
CLINTON        FAIR      83  73  71 S5        29.90F
ELIZABETHTOWN  FAIR      82  70  66 S12       29.92S
GOLDSBORO      FAIR      86  71  61 S8        29.88S
GREENVILLE     FAIR      84  72  65 S12G18    29.92S
HAVELOCK       NOT AVBL
KENANSVILLE    FAIR      84  70  61 S6        29.91S
KINSTON        SUNNY     86  70  58 S10G16    29.90S
NEW BERN       FAIR      82  72  71 SW12      29.93F
RICHLANDS      FAIR      83  72  69 S12       29.92S
ROCKY MOUNT    PTSUNNY   82  70  66 SE5       29.89S
WASHINGTON     PTSUNNY   82  73  74 S8        29.92S
WHITEVILLE     FAIR      83  69  61 S13       29.92S

$$

AMZ130-135-150-152-154-156-158-170-250-252-270-ANZ085-086-088-633-658-670-262300-
MARINE OBSERVATIONS

STATION/POSITION TIME  TEMP    WIND        PRES    WAVE   SWELL
                       AIR SEA DIR/SP/G            HT/PER HT/PER
                 (UTC) (F)     (DEG/KT/KT) (MB)    (FT/S) (FT/S)
CHESAPEAKE LIGHT NOT AVBL
64 E VA BEACH    2150   74 71  200/ 16/ 17 1013.1    3/ 4   2/ 9
DUCK             2154   82 62  210/ 12/ 16 1012.1
2 E DUCK         2200      72                N/A     2/ 8
OREGON INLET     2154   79 82  190/ 21/ 25 1013.2
13E OREGON INLT  2148      73                N/A     2/ 8   2/ 8
HATTERAS CG      2154   79 78  210/ 11/ 15 1013.8
DIAMOND BUOY     2200   78 78  200/ 16/ 19 1014.5
CAPE LOOKOUT     2200          200/ 14/ 17 1014.4
BEAUFORT LAB     2154   78 80  210/ 10/ 16 1014.4
30 SE NEW RVR IN 2208   78 77  200/ 12/ 16 1014.4
30 SE NEW RVR IN 2200      77                N/A     3/ 9
27 SE WRIGHTSVLE 2208   78 77  200/ 14/ 19 1014.6
5 SE WRIGHTSVLE  2208   76 76  140/ 16/ 17 1013.5
225 S CAPE HAT   2200      79  180/ 12/ 14 1016.4
41 SE CHARLESTON 2150      77  180/ 10/ 10 1014.5    3/ 8   2/ 8

$$




USA.gov is the U.S. government's official web portal to all federal, state and local government web resources and services.